Location: Newark
(50.5930°N, 3.6720°W)
Time: 11:02:13
(UTC+00:00)

Envisat - Pass Details

Date: 29 August 2019
Orbit: 764 x 766 km, 98.1° (Epoch: 21 October)

Event Time Altitude Azimuth Distance (km) Brightness Sun altitude
Rises 19:41:20 0° 209° (SSW) 3,223 6.3 -6.0°
Reaches altitude 10° 19:44:20 10° 228° (SW) 2,303 5.8 -6.5°
Maximum altitude 19:47:49 18° 272° (W) 1,797 6.0 -7.0°
Drops below altitude 10° 19:51:19 10° 315° (NW) 2,315 6.8 -7.5°
Sets 19:54:21 0° 334° (NNW) 3,247 7.2 -7.9°
